TimeCDT,TemperatureF,Dew PointF,Humidity,Sea Level PressureIn,VisibilityMPH,Wind Direction,Wind SpeedMPH,Gust SpeedMPH,PrecipitationIn,Events,Conditions,WindDirDegrees,DateUTC
12:15 AM,54.5,52.7,94,29.66,3.0,East,6.9,-,N/A,Rain-Thunderstorm,Light Thunderstorms and Rain,90,2013-04-18 05:15:00
12:35 AM,54.5,52.7,94,29.65,3.0,East,3.5,-,N/A,,Mostly Cloudy,80,2013-04-18 05:35:00
12:55 AM,54.5,52.9,94,29.66,3.0,ENE,3.5,-,N/A,,Overcast,60,2013-04-18 05:55:00
1:15 AM,55.0,53.2,94,29.66,3.0,ENE,3.5,-,N/A,Thunderstorm,Overcast,70,2013-04-18 06:15:00
1:35 AM,55.0,53.2,94,29.65,3.0,East,3.5,-,N/A,,Overcast,90,2013-04-18 06:35:00
1:55 AM,55.0,53.2,94,29.63,3.0,ESE,4.6,-,N/A,,Overcast,120,2013-04-18 06:55:00
2:15 AM,55.4,53.8,94,29.61,3.0,SE,8.1,-,N/A,,Overcast,130,2013-04-18 07:15:00
2:35 AM,56.7,54.9,94,29.60,5.0,SE,8.1,-,N/A,,Overcast,140,2013-04-18 07:35:00
2:55 AM,58.6,56.3,92,29.60,5.0,WSW,5.8,-,N/A,Thunderstorm,Overcast,240,2013-04-18 07:55:00
3:15 AM,60.8,57.4,88,29.58,7.0,NE,4.6,-,N/A,Thunderstorm,Overcast,50,2013-04-18 08:15:00
3:35 AM,61.0,58.1,90,29.58,7.0,West,17.3,27.6,N/A,,Overcast,280,2013-04-18 08:35:00
3:55 AM,60.4,57.4,90,29.55,7.0,NNW,10.4,-,N/A,Thunderstorm,Overcast,340,2013-04-18 08:55:00
4:15 AM,59.5,57.0,91,29.63,5.0,West,13.8,33.4,0.05,Rain-Thunderstorm,Heavy Thunderstorms and Rain,280,2013-04-18 09:15:00
4:35 AM,59.0,56.7,92,29.59,3.0,ESE,4.6,-,0.37,Rain-Thunderstorm,Heavy Thunderstorms and Rain,120,2013-04-18 09:35:00
4:55 AM,58.3,56.5,94,29.59,2.5,Calm,Calm,-,0.48,Rain-Thunderstorm,Heavy Thunderstorms and Rain,0,2013-04-18 09:55:00
5:15 AM,58.3,56.7,94,29.59,4.0,SSE,5.8,-,0.05,Rain-Thunderstorm,Light Thunderstorms and Rain,150,2013-04-18 10:15:00
5:35 AM,58.8,57.2,94,29.61,4.0,South,4.6,-,0.13,Rain-Thunderstorm,Heavy Thunderstorms and Rain,190,2013-04-18 10:35:00
5:55 AM,59.0,57.4,94,29.59,4.0,Calm,Calm,-,0.20,Rain-Thunderstorm,Heavy Thunderstorms and Rain,0,2013-04-18 10:55:00
6:15 AM,59.4,57.7,94,29.61,3.0,Calm,Calm,-,0.03,Rain-Thunderstorm,Rain,0,2013-04-18 11:15:00
6:35 AM,59.4,57.7,94,29.61,2.0,Calm,Calm,-,0.08,Rain-Thunderstorm,Rain,0,2013-04-18 11:35:00
6:55 AM,59.7,58.3,95,29.61,3.0,WSW,4.6,-,0.11,Rain-Thunderstorm,Rain,240,2013-04-18 11:55:00
7:15 AM,60.4,59.0,95,29.61,5.0,West,4.6,-,0.04,Rain,Rain,270,2013-04-18 12:15:00
7:35 AM,59.9,58.3,94,29.57,2.5,East,3.5,-,0.08,Rain,Light Rain,80,2013-04-18 12:35:00
7:55 AM,59.9,58.3,94,29.60,2.0,SE,9.2,-,0.10,Rain,Rain,140,2013-04-18 12:55:00
8:15 AM,60.8,59.2,94,29.62,5.0,South,6.9,-,0.02,Rain,Rain,170,2013-04-18 13:15:00
8:35 AM,60.8,59.2,94,29.61,5.0,SE,5.8,-,0.04,Rain,Light Rain,140,2013-04-18 13:35:00
8:55 AM,61.0,59.4,94,29.61,7.0,SSE,10.4,-,0.06,Rain,Light Rain,150,2013-04-18 13:55:00
9:15 AM,61.2,59.7,95,29.62,7.0,SSE,9.2,-,N/A,Rain,Light Rain,160,2013-04-18 14:15:00
9:35 AM,61.3,59.9,95,29.62,10.0,SSE,6.9,-,0.01,Rain,Light Rain,160,2013-04-18 14:35:00
9:55 AM,61.3,59.5,94,29.62,7.0,SSE,9.2,-,0.05,Rain,Light Rain,150,2013-04-18 14:55:00
10:15 AM,61.3,59.5,94,29.61,5.0,SSE,9.2,-,0.03,Rain,Rain,150,2013-04-18 15:15:00
10:35 AM,61.9,60.1,94,29.60,7.0,SE,11.5,-,0.06,Rain,Light Rain,140,2013-04-18 15:35:00
10:55 AM,61.9,59.9,93,29.59,5.0,SE,12.7,-,0.09,Rain,Rain,140,2013-04-18 15:55:00
11:15 AM,61.9,59.9,93,29.55,10.0,ESE,19.6,-,N/A,Rain,Light Rain,120,2013-04-18 16:15:00
11:35 AM,62.2,60.1,93,29.57,10.0,SE,19.6,26.5,0.01,Rain,Light Rain,140,2013-04-18 16:35:00
11:55 AM,62.6,60.1,91,29.54,10.0,SE,17.3,23.0,0.01,,Overcast,130,2013-04-18 16:55:00
12:15 PM,62.8,60.4,92,29.54,10.0,SSE,17.3,21.9,N/A,,Overcast,150,2013-04-18 17:15:00
12:35 PM,63.5,60.8,91,29.54,10.0,South,15.0,24.2,N/A,,Overcast,170,2013-04-18 17:35:00
12:55 PM,64.4,60.8,88,29.49,10.0,SSE,17.3,24.2,N/A,,Overcast,150,2013-04-18 17:55:00
1:15 PM,64.4,61.2,89,29.53,10.0,South,17.3,23.0,N/A,,Overcast,170,2013-04-18 18:15:00
1:35 PM,65.3,61.2,86,29.53,10.0,South,19.6,26.5,N/A,,Overcast,170,2013-04-18 18:35:00
1:55 PM,64.8,61.0,88,29.56,10.0,SW,24.2,31.1,N/A,,Overcast,220,2013-04-18 18:55:00
2:15 PM,55.6,51.8,87,29.59,10.0,WSW,21.9,28.8,N/A,,Mostly Cloudy,240,2013-04-18 19:15:00
2:35 PM,53.2,48.7,85,29.59,10.0,WSW,16.1,33.4,N/A,,Overcast,240,2013-04-18 19:35:00
2:55 PM,51.3,46.9,85,29.59,10.0,West,18.4,27.6,N/A,,Overcast,260,2013-04-18 19:55:00
3:35 PM,49.3,44.1,82,29.65,10.0,WSW,18.4,29.9,N/A,,Overcast,240,2013-04-18 20:35:00
3:55 PM,48.2,43.2,83,29.61,10.0,WSW,16.1,27.6,N/A,,Overcast,240,2013-04-18 20:55:00
4:15 PM,48.0,42.4,81,29.63,10.0,WSW,18.4,27.6,N/A,,Overcast,240,2013-04-18 21:15:00
4:35 PM,47.1,41.2,80,29.66,10.0,WSW,15.0,28.8,N/A,,Overcast,240,2013-04-18 21:35:00
4:55 PM,46.6,40.3,79,29.66,10.0,WSW,17.3,26.5,N/A,,Overcast,250,2013-04-18 21:55:00
5:15 PM,46.4,40.1,79,29.66,10.0,WSW,20.7,28.8,N/A,,Overcast,250,2013-04-18 22:15:00
5:35 PM,46.6,40.1,78,29.68,10.0,WSW,18.4,24.2,N/A,,Overcast,250,2013-04-18 22:35:00
5:55 PM,46.6,39.4,76,29.68,10.0,WSW,16.1,29.9,N/A,,Overcast,240,2013-04-18 22:55:00
6:15 PM,46.9,38.5,72,29.69,10.0,WSW,15.0,28.8,N/A,,Overcast,250,2013-04-18 23:15:00
6:35 PM,46.9,37.8,70,29.69,10.0,WSW,18.4,26.5,N/A,,Overcast,240,2013-04-18 23:35:00
6:55 PM,46.6,37.6,71,29.71,10.0,WSW,19.6,26.5,N/A,,Overcast,240,2013-04-18 23:55:00
7:15 PM,46.4,37.6,71,29.73,10.0,WSW,18.4,24.2,N/A,,Overcast,250,2013-04-19 00:15:00
7:35 PM,45.9,37.4,72,29.73,10.0,WSW,12.7,19.6,N/A,,Overcast,250,2013-04-19 00:35:00
7:55 PM,45.0,37.0,74,29.74,10.0,WSW,13.8,21.9,N/A,Rain,Rain,250,2013-04-19 00:55:00
8:15 PM,43.7,37.4,78,29.75,10.0,West,12.7,24.2,N/A,,Light Drizzle,260,2013-04-19 01:15:00
8:35 PM,43.2,36.7,78,29.73,10.0,West,12.7,18.4,N/A,,Overcast,260,2013-04-19 01:35:00
9:55 PM,42.1,34.9,76,29.78,10.0,West,16.1,24.2,N/A,Rain,Rain,270,2013-04-19 02:55:00
10:15 PM,41.0,35.6,81,29.77,7.0,West,16.1,27.6,N/A,,Light Drizzle,270,2013-04-19 03:15:00
10:35 PM,40.5,33.1,75,29.77,10.0,West,17.3,26.5,N/A,,Overcast,270,2013-04-19 03:35:00
10:55 PM,40.1,32.4,74,29.76,10.0,West,17.3,25.3,N/A,,Mostly Cloudy,270,2013-04-19 03:55:00
11:15 PM,40.3,32.5,74,29.75,10.0,West,11.5,21.9,N/A,,Overcast,270,2013-04-19 04:15:00
11:35 PM,40.3,32.0,72,29.75,10.0,West,17.3,24.2,N/A,,Overcast,260,2013-04-19 04:35:00
11:55 PM,40.1,32.0,73,29.75,10.0,West,11.5,26.5,N/A,,Overcast,270,2013-04-19 04:55:00